Terminal Aerodrome Forecast
Issued by NWS

Home | Current Version | Previous Version | Text Only | Print | Product List | Glossary Off
Versions: 1 2 3 4 5 6 7 8 9 10 11 12 13 14 15 16 17 18 19 20 21 22 23 24 25 26 27 28 29 30 31 32 33 34 35 36 37 38 39 40 41 42 43 44 45 46 47 48 49 50

000
FTUS43 KLOT 211600 AAD
TAFGYY
TAF AMD
KGYY 211614Z 2116/2212 20009KT P6SM VCSH SCT050 BKN150 OVC250
     FM220000 18006KT P6SM SCT040 BKN100
     FM220300 22006KT P6SM VCSH SCT050 BKN100 PROB30 2204/2210 4SM
      -TSRA BR BKN050CB
     FM221100 22007KT 4SM BR BKN040=

USA.gov is the U.S. government's official web portal to all federal, state and local government web resources and services.